User: anonymous   Login
Location: Cherry Springs State Park
(41.6616°N, 77.8240°W)
Time: 22:36:17
(UTC-04:00)
Language:

Cosmos 1939 Rocket - Orbit

View from above orbital plane
View from above orbital plane
View from above satellite
View from above satellite

Ground track
Ground track

The orbit data is extracted from the following two-line orbital elements,

1 19046U 88032B   18145.21373416 -.00000342  00000-0 -20914-4 0  9998
2 19046  97.4790 186.3141 0036328 251.6975 108.0296 15.02410520623994
Epoch (UTC): 25 May 2018 05:07:46
Eccentricity: 0.0036328
inclination: 97.4790°
perigee height: 534 km
apogee height: 584 km
right ascension of ascending node: 186.3141°
argument of perigee: 251.6975°
revolutions per day: 15.02410520
mean anomaly at epoch: 108.0296°
orbit number at epoch: 62399

The dashed part of the orbit path shows where the satellite is in the earth's shadow,  

DLR